V.C. Bird, Antigua

3:18 PM AST on December 09, 2019 (GMT -0400)
V C Bird International

Weather History for TAPA - August, 2019

Change the Weather History Date:

Thursday, August 22, 2019

  Actual Average Record
Temperature  
Mean Temperature 80 °F -  
Max Temperature 86 °F 85 °F 89 °F (1996)
Min Temperature 74 °F 77 °F 74 °F (2019)
Cooling Degree Days 15    
Growing Degree Days 30 (Base 50)    
Moisture  
Dew Point 74 °F    
Average Humidity 78    
Maximum Humidity 94    
Minimum Humidity 66    
Precipitation  
Precipitation 0.43 in - - ()
Sea Level Pressure  
Sea Level Pressure 30.02 in    
Wind  
Wind Speed 7 mph ()    
Max Wind Speed 17 mph    
Max Gust Speed -    
Visibility 7.4 miles    
Events Rain    
Averages and records for this station are not official NWS values.
T = Trace of Precipitation, MM = Missing Value Source: Averaged Metar Reports

Daily Weather History Graph

Daily Weather History Graph

Search for Another Location

Airport or City:

Astronomy

Aug. 22, 2019 Rise Set
Actual Time 5:51 AM AST 6:28 PM AST
Civil Twilight 5:29 AM AST 6:50 PM AST
Nautical Twilight 5:03 AM AST 7:16 PM AST
Astronomical Twilight 4:37 AM AST 7:42 PM AST
Moon 11:14 PM AST (8/22) 11:26 AM AST (8/22)
Length of Visible Light 13h 20m
Length of Day
12h 36m
Waning Gibbous, 60% of the Moon is Illuminated
Aug 22
Waning Gibbous
Aug 23
Last Quarter
Aug 30
New
Sep 5
First Quarter
Sep 14
Full

Hourly Weather History & Observations

Time (AST) Temp. Heat Index Dew Point Humidity Pressure Visibility Wind Dir Wind Speed Gust Speed Precip Events Conditions
12:00 AM 80.6 °F 85.4 °F 73.4 °F 79% 30.01 in 6.2 mi SE 5.8 mph - N/A   Partly Cloudy
1:00 AM 77.0 °F - 71.6 °F 83% 30.01 in 6.2 mi East 4.6 mph - N/A   Scattered Clouds
2:00 AM 79 °F - 74 °F 79% 29.99 in 17 mi East 3.5 mph - -   Mostly Cloudy
2:00 AM 78.8 °F - 73.4 °F 83% 29.98 in 6.2 mi East 3.5 mph - N/A   Scattered Clouds
3:00 AM 78.8 °F - 73.4 °F 83% 29.98 in 6.2 mi East 6.9 mph - N/A   Mostly Cloudy
4:00 AM 78.8 °F - 73.4 °F 83% 29.98 in 6.2 mi ESE 3.5 mph - N/A   Mostly Cloudy
5:00 AM 78.8 °F - 73.4 °F 83% 30.01 in 6.2 mi SE 3.5 mph - N/A   Scattered Clouds
6:32 AM 75.2 °F - 71.6 °F 89% 30.06 in 0.6 mi East 13.8 mph - N/A Rain Heavy Rain Showers
6:41 AM 75.2 °F - 71.6 °F 89% 30.04 in 6.2 mi East 3.5 mph - N/A Rain Light Rain Showers
7:00 AM 75.2 °F - 73.4 °F 94% 30.04 in 6.2 mi Variable 1.2 mph - N/A   Mostly Cloudy
8:00 AM 80 °F - 75 °F 82% 30.05 in 19 mi East 4.6 mph - - Rain Light Rain Showers
8:00 AM 78.8 °F - 75.2 °F 89% 30.04 in 6.2 mi East 4.6 mph - N/A   Scattered Clouds
9:00 AM 78.8 °F - 75.2 °F 89% 30.06 in 6.2 mi SE 9.2 mph - N/A Rain Light Rain Showers
10:00 AM 84.2 °F 94.1 °F 77.0 °F 79% 30.06 in 6.2 mi ESE 9.2 mph - N/A   Mostly Cloudy
11:00 AM 85 °F - 75 °F 66% 30.06 in 19 mi East 11.5 mph - -   Mostly Cloudy
11:00 AM 86.0 °F 95.1 °F 75.2 °F 70% 30.04 in 6.2 mi East 11.5 mph - N/A   Scattered Clouds
11:26 AM 86.0 °F 95.1 °F 75.2 °F 70% 30.01 in 1.2 mi ESE 17.3 mph - N/A Rain Rain Showers
11:32 AM 86.0 °F 95.1 °F 75.2 °F 70% 30.04 in 6.2 mi East 8.1 mph - N/A   Scattered Clouds
12:00 PM 84.2 °F 94.1 °F 77.0 °F 79% 30.04 in 6.2 mi East 11.5 mph - N/A   Scattered Clouds
1:00 PM 86.0 °F 95.1 °F 75.2 °F 70% 30.01 in 6.2 mi East 12.7 mph - N/A   Scattered Clouds
2:00 PM 86.0 °F 93.4 °F 73.4 °F 66% 30.01 in 6.2 mi East 12.7 mph - N/A   Scattered Clouds
3:00 PM 84.2 °F 92.3 °F 75.2 °F 74% 30.01 in 6.2 mi ESE 9.2 mph - N/A   Mostly Cloudy
4:00 PM 84.2 °F 92.3 °F 75.2 °F 74% 29.98 in 6.2 mi East 9.2 mph - N/A   Scattered Clouds
5:00 PM 84.2 °F 92.3 °F 75.2 °F 74% 29.98 in 6.2 mi East 10.4 mph - N/A   Scattered Clouds
6:00 PM 82.4 °F 88.2 °F 73.4 °F 74% 30.01 in 6.2 mi ESE 9.2 mph - N/A   Scattered Clouds
7:00 PM 82.4 °F 89.5 °F 75.2 °F 79% 30.01 in 6.2 mi East 10.4 mph - N/A   Partly Cloudy
8:00 PM 82.4 °F 88.2 °F 73.4 °F 74% 30.01 in 6.2 mi East 9.2 mph - N/A   Partly Cloudy
9:00 PM 82.4 °F 88.2 °F 73.4 °F 74% 30.04 in 6.2 mi East 10.4 mph - N/A   Partly Cloudy
10:00 PM 80.6 °F 85.4 °F 73.4 °F 79% 30.04 in 6.2 mi East 9.2 mph - N/A   Partly Cloudy
11:00 PM 81 °F - 74 °F 72% 30.06 in 19 mi East 8.1 mph - -   Partly Cloudy
11:00 PM 80.6 °F 85.4 °F 73.4 °F 79% 30.04 in 6.2 mi East 8.1 mph - N/A   Scattered Clouds